{"data":{"norad_id":68938,"intl_designator":"2026-098V","name":"KUIPER-00434","alt_names":[],"object_type":"PAYLOAD","status":"ACTIVE","operator":null,"country":"US","launch_date":"2026-04-30","launch_site_code":"FRGUI","launch_vehicle":null,"mission":null,"orbit_class":"UNKNOWN","rcs_meters":null,"size_class":null,"mass_kg":null,"dimensions":null,"purposes":[],"wikipedia_slug":null,"has_3d_model":false,"image_url":null,"decayed_at":null,"tle_current":{"epoch":"2026-09-19T07:47:35.791584Z","epoch_age_seconds":120953,"freshness":"FRESH","line1":"1 68938U 26098V   26262.32471981  .00001294  00000+0  21512-3 0  9991","line2":"2 68938  51.9027   3.3225 0001521 133.5811 226.5276 14.76392810 21404","mean_motion":14.7639281,"eccentricity":0.0001521,"inclination_deg":51.9027,"raan_deg":3.3225,"arg_perigee_deg":133.5811,"mean_anomaly_deg":226.5276,"bstar":0.00021512,"rev_number":2140,"period_min":97.535018475198,"perigee_km":639.66588672052,"apogee_km":641.80102711352,"semimajor_km":7018.870456917,"source":"CELESTRAK","updated_at":"2026-09-20T09:00:24.581567Z"}}}